Weather History for Perry, IA

Change the Weather History Date:

Monday, January 28, 2013

  Actual Average Record
Temperature  
Mean Temperature 36 °F -  
Max Temperature 41 °F 27 °F 56 °F (1989)
Min Temperature 32 °F 7 °F -19 °F (1972)
Degree Days  
Heating Degree Days 28    
Moisture  
Dew Point 36 °F    
Average Humidity 100    
Maximum Humidity 100    
Minimum Humidity 98    
Precipitation  
Precipitation 0.00 in - - ()
Sea Level Pressure  
Sea Level Pressure 29.77 in    
Wind  
Wind Speed 6 mph (ESE)    
Max Wind Speed 14 mph    
Max Gust Speed -    
Averages and records for this station are not official NWS values.
T = Trace of Precipitation, MM = Missing Value Source: NWS Daily Summary

Daily Weather History Graph

Daily Weather History Graph

Search for Another Location

Airport:

Trip Planner

Search our weather history database for the weather conditions in past years. The results will help you decide how hot, cold, wet, or windy it might be!

Date:

Astronomy

Jan. 28, 2013 Rise Set
Actual Time 7:32 AM CST 5:27 PM CST
Civil Twilight 7:02 AM CST 5:56 PM CST
Nautical Twilight 6:29 AM CST 6:30 PM CST
Astronomical Twilight 5:56 AM CST 7:03 PM CST
Moon 7:25 PM CST (1/28) 7:56 AM CST (1/28)
Length of Visible Light 10h 54m
Length of Day
9h 54m
Full, 98% of the Moon is Illuminated
Jan 28
Full
Feb 3
Last Quarter
Feb 10
New
Feb 17
First Quarter
Feb 25
Full

Hourly Weather History & Observations

Time (CST) Temp. Windchill Dew Point Humidity Pressure Visibility Wind Dir Wind Speed Gust Speed Precip Events Conditions
12:15 AM 33.3 °F 30.2 °F 33.3 °F 100% 29.79 in 2.0 mi WNW 3.5 mph - N/A   Overcast
12:35 AM 33.3 °F 28.9 °F 33.3 °F 100% 29.79 in 3.0 mi WNW 4.6 mph - N/A   Overcast
12:55 AM 33.1 °F 30.0 °F 33.1 °F 100% 29.79 in 2.5 mi WNW 3.5 mph - N/A   Overcast
1:15 AM 32.9 °F 29.8 °F 32.9 °F 100% 29.80 in 0.5 mi WNW 3.5 mph - N/A Fog Fog
1:55 AM 32.9 °F 27.5 °F 32.9 °F 100% 29.82 in 0.8 mi West 5.8 mph - N/A   Overcast
2:15 AM 32.9 °F 28.5 °F 32.9 °F 100% 29.82 in 2.0 mi West 4.6 mph - N/A   Overcast
2:55 AM 33.6 °F 29.4 °F 33.6 °F 100% 29.83 in 0.5 mi West 4.6 mph - N/A Fog Fog
3:15 AM 33.8 °F 29.6 °F 33.8 °F 100% 29.84 in 0.2 mi WNW 4.6 mph - N/A Fog Fog
3:35 AM 33.8 °F 29.6 °F 33.8 °F 100% 29.84 in 0.2 mi WNW 4.6 mph - N/A Fog Fog
3:55 AM 34.0 °F 28.0 °F 34.0 °F 100% 29.84 in 0.5 mi WNW 6.9 mph - N/A Fog Fog
4:15 AM 34.7 °F 31.8 °F 34.7 °F 100% 29.85 in 0.5 mi WNW 3.5 mph - N/A Fog Fog
4:35 AM 34.3 °F 28.4 °F 34.3 °F 100% 29.84 in 0.5 mi NW 6.9 mph - N/A Fog Fog
4:55 AM 34.7 °F 27.5 °F 34.7 °F 100% 29.85 in 0.8 mi NNW 9.2 mph - N/A   Overcast
5:15 AM 34.2 °F 29.0 °F 34.2 °F 100% 29.86 in 0.8 mi NNW 5.8 mph - N/A   Overcast
5:35 AM 34.3 °F 31.4 °F 34.3 °F 100% 29.86 in 0.5 mi NNW 3.5 mph - N/A Fog Fog
5:55 AM 34.2 °F 31.2 °F 34.2 °F 100% 29.86 in 0.5 mi North 3.5 mph - N/A Fog Fog
6:15 AM 34.0 °F 31.0 °F 34.0 °F 100% 29.86 in 0.2 mi North 3.5 mph - N/A Fog Fog
6:35 AM 33.8 °F - 33.8 °F 100% 29.87 in 0.2 mi Calm Calm - N/A Fog Fog
6:55 AM 33.3 °F 28.9 °F 33.3 °F 100% 29.87 in 0.2 mi ESE 4.6 mph - N/A Fog Fog
7:15 AM 33.4 °F 30.4 °F 33.4 °F 100% 29.87 in 0.2 mi East 3.5 mph - N/A Fog Fog
7:35 AM 33.3 °F 30.2 °F 33.3 °F 100% 29.89 in 1.0 mi SSE 3.5 mph - N/A   Overcast
7:55 AM 33.1 °F 28.7 °F 33.1 °F 100% 29.89 in 0.5 mi SE 4.6 mph - N/A Fog Fog
8:15 AM 33.1 °F 30.0 °F 33.1 °F 100% 29.90 in 0.2 mi East 3.5 mph - N/A Fog Fog
8:35 AM 33.1 °F 30.0 °F 33.1 °F 100% 29.90 in 0.5 mi East 3.5 mph - N/A Fog Fog
8:55 AM 33.1 °F 30.0 °F 33.1 °F 100% 29.89 in 0.2 mi East 3.5 mph - N/A Fog Fog
9:15 AM 32.9 °F 29.8 °F 32.9 °F 100% 29.90 in 0.2 mi ESE 3.5 mph - N/A Fog Fog
9:35 AM 33.3 °F - 33.3 °F 100% 29.90 in 0.2 mi Calm Calm - N/A Fog Fog
9:55 AM 33.3 °F - 33.3 °F 100% 29.89 in 0.2 mi Calm Calm - N/A Fog Fog
10:15 AM 33.8 °F - 33.8 °F 100% 29.89 in 0.2 mi Calm Calm - N/A Fog Fog
10:35 AM 34.0 °F - 34.0 °F 100% 29.87 in 0.2 mi Calm Calm - N/A Fog Fog
10:55 AM 34.2 °F 28.2 °F 34.2 °F 100% 29.86 in 0.2 mi East 6.9 mph - N/A Fog Fog
11:15 AM 34.3 °F 30.2 °F 34.3 °F 100% 29.89 in 0.2 mi SE 4.6 mph - N/A Fog Fog
11:35 AM 34.7 °F 30.6 °F 34.7 °F 100% 29.88 in 0.2 mi ESE 4.6 mph - N/A Fog Fog
11:55 AM 35.2 °F 30.3 °F 35.2 °F 100% 29.86 in 0.2 mi East 5.8 mph - N/A Fog Fog
12:15 PM 35.6 °F 29.2 °F 35.6 °F 100% 29.86 in 0.2 mi ESE 8.1 mph - N/A Fog Fog
12:35 PM 35.6 °F 29.9 °F 35.6 °F 100% 29.84 in 0.2 mi ESE 6.9 mph - N/A Fog Fog
12:55 PM 35.6 °F 29.2 °F 35.6 °F 100% 29.83 in 0.2 mi East 8.1 mph - N/A Fog Fog
1:15 PM 36.0 °F 28.5 °F 36.0 °F 100% 29.81 in 0.2 mi East 10.4 mph - N/A Fog Fog
1:35 PM 36.1 °F 29.3 °F 36.1 °F 100% 29.80 in 0.2 mi ESE 9.2 mph - N/A Fog Fog
1:55 PM 36.0 °F 28.5 °F 36.0 °F 100% 29.80 in 0.2 mi ESE 10.4 mph - N/A Fog Fog
2:15 PM 36.1 °F 28.7 °F 36.1 °F 100% 29.79 in 0.2 mi ESE 10.4 mph - N/A Fog Fog
2:35 PM 36.3 °F 28.9 °F 36.3 °F 100% 29.77 in 0.2 mi East 10.4 mph - N/A Fog Fog
2:55 PM 36.1 °F 27.7 °F 36.1 °F 100% 29.77 in 0.2 mi ESE 12.7 mph - N/A Fog Fog
3:15 PM 36.3 °F 28.0 °F 36.3 °F 100% 29.76 in 0.5 mi ESE 12.7 mph - N/A Fog Fog
3:35 PM 36.3 °F 28.0 °F 36.3 °F 100% 29.76 in 0.8 mi ESE 12.7 mph - N/A   Overcast
3:55 PM 36.1 °F 28.2 °F 36.1 °F 100% 29.75 in 0.2 mi East 11.5 mph - N/A Fog Fog
4:15 PM 36.1 °F 27.7 °F 36.1 °F 100% 29.74 in 0.2 mi ESE 12.7 mph - N/A Fog Fog
4:35 PM 36.3 °F 27.5 °F 36.3 °F 100% 29.74 in 0.2 mi ESE 13.8 mph - N/A Fog Fog
4:55 PM 36.5 °F 28.7 °F 36.5 °F 100% 29.73 in 0.2 mi ESE 11.5 mph - N/A Fog Fog
5:15 PM 36.5 °F 29.2 °F 36.5 °F 100% 29.72 in 0.2 mi ESE 10.4 mph - N/A Fog Fog
5:35 PM 36.5 °F 29.2 °F 36.5 °F 100% 29.71 in 0.5 mi ESE 10.4 mph - N/A Fog Fog
5:55 PM 36.5 °F 28.7 °F 36.5 °F 100% 29.70 in 0.5 mi ESE 11.5 mph - N/A Fog Fog
6:15 PM 36.5 °F 28.2 °F 36.5 °F 100% 29.69 in 0.2 mi ESE 12.7 mph - N/A Fog Fog
6:35 PM 36.7 °F 28.9 °F 36.7 °F 100% 29.69 in 0.5 mi ESE 11.5 mph - N/A Fog Fog
6:55 PM 36.9 °F 29.1 °F 36.9 °F 100% 29.69 in 0.5 mi ESE 11.5 mph - N/A Snow Light Snow
7:15 PM 37.4 °F 29.3 °F 37.4 °F 100% 29.69 in 0.5 mi ESE 12.7 mph - N/A Fog Fog
7:35 PM 37.4 °F 29.8 °F 37.4 °F 100% 29.67 in 0.2 mi ESE 11.5 mph - N/A Snow Light Snow
7:55 PM 37.8 °F 30.2 °F 37.6 °F 99% 29.66 in 0.2 mi ESE 11.5 mph - N/A Snow Light Snow
8:15 PM 38.3 °F 30.5 °F 38.3 °F 100% 29.65 in 0.2 mi ESE 12.7 mph - N/A   Unknown
8:35 PM 38.8 °F 31.2 °F 38.7 °F 99% 29.64 in 0.2 mi ESE 12.7 mph - N/A   Unknown
8:55 PM 39.2 °F 32.5 °F 39.0 °F 99% 29.63 in 0.2 mi SE 10.4 mph - N/A Fog Fog
9:15 PM 40.1 °F 33.6 °F 39.7 °F 99% 29.60 in 0.2 mi ESE 10.4 mph - N/A Fog Fog
9:35 PM 39.6 °F 34.0 °F 39.4 °F 99% 29.60 in 0.5 mi SE 8.1 mph - N/A Fog Fog
9:55 PM 40.3 °F 35.5 °F 40.1 °F 99% 29.59 in 0.8 mi SE 6.9 mph - N/A Rain Light Rain
10:15 PM 41.4 °F 35.7 °F 41.0 °F 99% 29.58 in 0.5 mi SE 9.2 mph - N/A Fog Fog
10:35 PM 41.9 °F 36.3 °F 41.4 °F 98% 29.57 in 0.2 mi SE 9.2 mph - N/A Fog Fog
10:55 PM 41.0 °F 38.0 °F 40.8 °F 99% 29.57 in 0.2 mi NNW 4.6 mph - N/A Fog Fog
11:15 PM 40.1 °F 36.1 °F 40.1 °F 100% 29.56 in 0.2 mi ESE 5.8 mph - N/A Fog Fog
11:35 PM 40.1 °F 36.9 °F 39.9 °F 99% 29.56 in 0.2 mi ESE 4.6 mph - N/A Fog Fog
11:55 PM 39.2 °F 33.0 °F 38.8 °F 99% 29.54 in 0.2 mi ESE 9.2 mph - N/A Fog Fog